Location: Monte Entu
(40.0333°N, 8.5333°E)
Time: 03:59:38
(UTC+00:00)

Atlas Centaur 2 - Pass Details

Date: 09 February 2023
Orbit: 458 x 1296 km, 30.4° (Epoch: 23 March)

Event Time Altitude Azimuth Distance (km) Brightness Sun altitude
Rises 19:20:38 0° 264° (W) 3,962 6.9 -28.5°
Reaches altitude 10° 19:23:37 10° 255° (WSW) 3,101 5.9 -29.0°
Maximum altitude 19:30:29 33° 195° (SSW) 2,001 4.1 -30.3°
Enters shadow 19:32:28 29° 171° (S) 2,143 4.1 -30.7°
